This demonstration page uses our WeatherBlox Daily Observations layout. Learn more.

Left ArrowRight Arrow

Hourly Observations for January 29, 2018

Temp ( °F °C ) Dew Point ( °F °C ) Humidity (%) Winds ( mph kmh ) Pressure ( in mb ) Visibility ( mi km ) Precip ( " mm )
12:53 am 00:53 Clear 14 -10 9 -12.8 80 80 N 9 15 30.68 1039 10 16 0.00 0.00
1:53 am 01:53 Clear 14 -10 9 -12.8 80 80 N 9 15 30.68 1039 10 16 0.00 0.00
2:53 am 02:53 Clear 12 -11.1 8 -13.3 84 84 NNW 6 9 30.68 1039 10 16 0.00 0.00
3:53 am 03:53 Clear 10 -12.2 6 -14.4 84 84 WNW 6 9 30.70 1040 10 16 0.00 0.00
4:53 am 04:53 Clear 11 -11.7 7 -13.9 84 84 NW 3 6 30.69 1039 10 16 0.00 0.00
5:53 am 05:53 Mostly Clear 10 -12.2 5 -15 80 80 Calm 30.69 1039 10 16 0.00 0.00
6:53 am 06:53 Mostly Cloudy 13 -10.6 9 -12.8 84 84 Calm 30.69 1039 10 16 0.00 0.00
7:53 am 07:53 Cloudy 14 -10 10 -12.2 84 84 NNE 6 9 30.68 1039 10 16 0.00 0.00
8:53 am 08:53 Cloudy 15 -9.4 10 -12.2 80 80 N 6 9 30.67 1039 10 16 0.00 0.00
9:53 am 09:53 Cloudy 17 -8.3 9 -12.8 70 70 N 3 6 30.68 1039 10 16 0.00 0.00
10:53 am 10:53 Cloudy 21 -6.1 11 -11.7 65 65 NNE 5 7 30.67 1039 10 16 0.00 0.00
11:53 am 11:53 Cloudy 24 -4.4 13 -10.6 62 62 Calm 30.65 1038 10 16 0.00 0.00
12:53 pm 12:53 Mostly Cloudy 26 -3.3 14 -10 60 60 S 6 9 30.59 1036 10 16 0.00 0.00
1:53 pm 13:53 Sunny 29 -1.7 14 -10 54 54 SSW 5 7 30.55 1035 10 16 0.00 0.00
2:53 pm 14:53 Sunny 32 0 15 -9.4 50 50 VRB 3 6 30.52 1034 10 16 0.00 0.00
3:53 pm 15:53 Sunny 33 0.6 16 -8.9 49 49 VRB 5 7 30.51 1033 10 16 0.00 0.00
4:53 pm 16:53 Cloudy 33 0.6 16 -8.9 49 49 S 5 7 30.50 1033 10 16 0.00 0.00
5:53 pm 17:53 Clear 31 -0.6 16 -8.9 54 54 SSE 5 7 30.50 1033 10 16 0.00 0.00
6:53 pm 18:53 Clear 28 -2.2 16 -8.9 60 60 SSE 3 6 30.50 1033 10 16 0.00 0.00
7:53 pm 19:53 Clear 27 -2.8 15 -9.4 61 61 S 7 11 30.49 1033 10 16 0.00 0.00
8:53 pm 20:53 Clear 25 -3.9 15 -9.4 66 66 SE 8 13 30.48 1032 10 16 0.00 0.00
9:53 pm 21:53 Clear 24 -4.4 14 -10 65 65 SE 7 11 30.47 1032 10 16 0.00 0.00
10:53 pm 22:53 Clear 24 -4.4 13 -10.6 62 62 SSE 8 13 30.45 1031 10 16 0.00 0.00
11:53 pm 23:53 Clear 22 -5.6 13 -10.6 68 68 SSE 12 19 30.42 1030 10 16 0.00 0.00

Powered by AerisWeather